KLM92W EKCH-EHAM

Flight info

Callsign KLM92W
Flight time 1h 3m
Altitude 38000
Route LANGO M611 ALASA DCT WANZA N872 KUBAT T200 BLUFA
Aircraft B738/M-SDE2E3FGHIRWXY/LB1

Departure

Time 2026-05-04 18:04
Airport Copenhagen Kastrup Airport (EKCH)

Arrival

Time 2026-05-04 19:08
Airport Amsterdam Airport Schiphol (EHAM)
Time Latitude Longitude Altitude Speed Heading
2026-05-04 17:28 55.62879 12.64065 23 ft 0 kts 11°
2026-05-04 17:52 55.62874 12.64064 28 ft 4 kts 11°
2026-05-04 17:52 55.62853 12.64056 25 ft 4 kts 13°
2026-05-04 17:52 55.62829 12.64039 26 ft 4 kts 43°
2026-05-04 17:52 55.62812 12.64003 25 ft 4 kts 49°
2026-05-04 17:53 55.62793 12.63974 24 ft 4 kts 41°
2026-05-04 17:53 55.62780 12.63939 27 ft 4 kts 91°
2026-05-04 17:53 55.62786 12.63899 25 ft 4 kts 115°
2026-05-04 17:53 55.62792 12.63878 25 ft 1 kts 115°
2026-05-04 17:58 55.62790 12.63884 26 ft 2 kts 115°
2026-05-04 17:58 55.62774 12.63917 23 ft 5 kts 156°
2026-05-04 17:59 55.62726 12.63896 23 ft 9 kts 208°
2026-05-04 17:59 55.62661 12.63860 23 ft 10 kts 160°
2026-05-04 17:59 55.62567 12.64092 25 ft 15 kts 123°
2026-05-04 18:00 55.62508 12.64249 25 ft 16 kts 123°
2026-05-04 18:00 55.62448 12.64394 24 ft 14 kts 127°
2026-05-04 18:00 55.62377 12.64441 23 ft 10 kts 193°
2026-05-04 18:00 55.62354 12.64431 23 ft 0 kts 195°
2026-05-04 18:01 55.62348 12.64428 22 ft 3 kts 195°
2026-05-04 18:01 55.62303 12.64406 22 ft 11 kts 195°
2026-05-04 18:02 55.62100 12.64260 23 ft 17 kts 205°
2026-05-04 18:02 55.61998 12.64175 23 ft 16 kts 205°
2026-05-04 18:02 55.61910 12.64101 23 ft 10 kts 205°
2026-05-04 18:02 55.61846 12.64072 23 ft 10 kts 179°
2026-05-04 18:03 55.61776 12.64079 23 ft 12 kts 176°
2026-05-04 18:03 55.61689 12.64088 27 ft 13 kts 176°
2026-05-04 18:03 55.61606 12.64039 29 ft 14 kts 220°
2026-05-04 18:03 55.61443 12.63788 24 ft 63 kts 221°
2026-05-04 18:04 55.60934 12.63004 25 ft 129 kts 220°
2026-05-04 18:04 55.60144 12.61772 263 ft 160 kts 225°
2026-05-04 18:04 55.58488 12.59191 1753 ft 166 kts 226°
2026-05-04 18:05 55.57619 12.57847 2458 ft 174 kts 224°
2026-05-04 18:05 55.56676 12.56387 3068 ft 186 kts 230°
2026-05-04 18:05 55.56048 12.54358 3632 ft 193 kts 250°
2026-05-04 18:05 55.55424 12.52224 4242 ft 199 kts 242°
2026-05-04 18:06 55.53845 12.47743 4996 ft 231 kts 240°
2026-05-04 18:06 55.52958 12.45284 5430 ft 248 kts 240°
2026-05-04 18:06 55.52015 12.42653 6117 ft 256 kts 240°
2026-05-04 18:07 55.51064 12.39995 6966 ft 257 kts 240°
2026-05-04 18:07 55.50109 12.37315 7768 ft 259 kts 240°
2026-05-04 18:07 55.49148 12.34610 8570 ft 262 kts 240°
2026-05-04 18:07 55.48178 12.31872 9397 ft 264 kts 240°
2026-05-04 18:08 55.47199 12.29107 10168 ft 268 kts 240°
2026-05-04 18:08 55.46177 12.26215 10444 ft 290 kts 240°
2026-05-04 18:08 55.45070 12.23080 10638 ft 313 kts 240°
2026-05-04 18:08 55.43886 12.19731 10923 ft 329 kts 240°
2026-05-04 18:09 55.41423 12.12798 12318 ft 336 kts 240°
2026-05-04 18:09 55.38922 12.05775 13871 ft 341 kts 240°
2026-05-04 18:10 55.37655 12.02222 14569 ft 344 kts 240°
2026-05-04 18:10 55.36376 11.98637 15271 ft 348 kts 240°
2026-05-04 18:10 55.35085 11.95025 15982 ft 351 kts 240°
2026-05-04 18:10 55.33780 11.91378 16684 ft 354 kts 240°
2026-05-04 18:11 55.32461 11.87697 17376 ft 358 kts 240°
2026-05-04 18:11 55.31127 11.83981 18063 ft 361 kts 240°
2026-05-04 18:11 55.29779 11.80231 18666 ft 365 kts 240°
2026-05-04 18:11 55.28418 11.76446 19239 ft 369 kts 240°
2026-05-04 18:12 55.27040 11.72625 19798 ft 373 kts 240°
2026-05-04 18:12 55.25666 11.68821 20348 ft 376 kts 240°
2026-05-04 18:12 55.24255 11.64940 20898 ft 380 kts 239°
2026-05-04 18:12 55.22819 11.61034 21420 ft 384 kts 239°
2026-05-04 18:13 55.21362 11.57091 21922 ft 388 kts 239°
2026-05-04 18:13 55.19891 11.53116 22452 ft 391 kts 239°
2026-05-04 18:13 55.16904 11.45060 23506 ft 397 kts 239°
2026-05-04 18:14 55.15393 11.40991 23932 ft 400 kts 239°
2026-05-04 18:14 55.13874 11.36903 24388 ft 402 kts 239°
2026-05-04 18:14 55.12349 11.32808 24854 ft 403 kts 238°
2026-05-04 18:15 55.09276 11.24571 25709 ft 407 kts 238°
2026-05-04 18:15 55.06168 11.16268 26540 ft 410 kts 238°
2026-05-04 18:15 55.04604 11.12100 26942 ft 412 kts 238°
2026-05-04 18:16 55.03027 11.07906 27328 ft 414 kts 238°
2026-05-04 18:16 55.01448 11.03713 27827 ft 409 kts 239°
2026-05-04 18:16 54.99907 10.99633 28866 ft 397 kts 239°
2026-05-04 18:17 54.96861 10.91565 29406 ft 406 kts 239°
2026-05-04 18:17 54.95303 10.87424 29531 ft 412 kts 240°
2026-05-04 18:17 54.93387 10.78083 30217 ft 411 kts 256°
2026-05-04 18:18 54.92703 10.73280 30633 ft 409 kts 256°
2026-05-04 18:18 54.92007 10.68484 30945 ft 409 kts 256°
2026-05-04 18:18 54.91297 10.63684 31206 ft 411 kts 255°
2026-05-04 18:18 54.90576 10.58872 31513 ft 411 kts 255°
2026-05-04 18:19 54.89120 10.49274 32158 ft 412 kts 255°
2026-05-04 18:19 54.88385 10.44463 32445 ft 412 kts 255°
2026-05-04 18:19 54.87648 10.39647 32750 ft 413 kts 255°
2026-05-04 18:20 54.86853 10.34858 33049 ft 413 kts 250°
2026-05-04 18:20 54.85635 10.30327 33326 ft 416 kts 242°
2026-05-04 18:20 54.84047 10.26128 33614 ft 418 kts 233°
2026-05-04 18:20 54.82204 10.22241 34068 ft 412 kts 233°
2026-05-04 18:21 54.80391 10.18463 34650 ft 405 kts 233°
2026-05-04 18:21 54.78581 10.14684 34724 ft 410 kts 233°
2026-05-04 18:21 54.74913 10.06993 35021 ft 415 kts 233°
2026-05-04 18:22 54.73081 10.03144 35323 ft 414 kts 233°
2026-05-04 18:22 54.71251 9.99300 35532 ft 414 kts 233°
2026-05-04 18:22 54.69419 9.95453 35713 ft 416 kts 233°
2026-05-04 18:22 54.67577 9.91589 35926 ft 417 kts 233°
2026-05-04 18:23 54.65734 9.87728 36163 ft 416 kts 232°
2026-05-04 18:23 54.63889 9.83868 36378 ft 417 kts 232°
2026-05-04 18:23 54.62030 9.79985 36563 ft 418 kts 232°
2026-05-04 18:23 54.60183 9.76134 36767 ft 418 kts 232°
2026-05-04 18:24 54.58330 9.72277 37024 ft 417 kts 232°
2026-05-04 18:24 54.56474 9.68419 37199 ft 419 kts 232°
2026-05-04 18:24 54.54606 9.64543 37313 ft 421 kts 232°
2026-05-04 18:24 54.52756 9.60710 37502 ft 422 kts 232°
2026-05-04 18:25 54.50881 9.56830 37721 ft 422 kts 232°
2026-05-04 18:25 54.48978 9.52900 37905 ft 422 kts 232°
2026-05-04 18:25 54.45196 9.45106 37988 ft 426 kts 232°
2026-05-04 18:26 54.41400 9.37312 37994 ft 423 kts 232°
2026-05-04 18:26 54.37630 9.29596 37988 ft 420 kts 232°
2026-05-04 18:27 54.33909 9.22001 37992 ft 418 kts 232°
2026-05-04 18:27 54.30171 9.14394 38001 ft 417 kts 232°
2026-05-04 18:28 54.26432 9.06809 38002 ft 417 kts 231°
2026-05-04 18:28 54.22681 8.99223 38004 ft 418 kts 231°
2026-05-04 18:29 54.18910 8.91620 38007 ft 420 kts 231°
2026-05-04 18:29 54.15122 8.84007 37999 ft 422 kts 231°
2026-05-04 18:30 54.09400 8.72551 37998 ft 424 kts 231°
2026-05-04 18:31 54.05563 8.64900 38001 ft 425 kts 231°
2026-05-04 18:31 54.01711 8.57242 38001 ft 426 kts 231°
2026-05-04 18:32 53.97849 8.49589 37999 ft 426 kts 231°
2026-05-04 18:32 53.93982 8.41950 37991 ft 426 kts 231°
2026-05-04 18:33 53.90117 8.34339 38006 ft 425 kts 231°
2026-05-04 18:33 53.86255 8.26755 38003 ft 424 kts 231°
2026-05-04 18:34 53.82400 8.19210 38004 ft 424 kts 230°
2026-05-04 18:34 53.78570 8.11735 38002 ft 423 kts 230°
2026-05-04 18:35 53.74717 8.04239 37999 ft 422 kts 230°
2026-05-04 18:35 53.70862 7.96763 37996 ft 421 kts 230°
2026-05-04 18:36 53.67020 7.89333 38020 ft 420 kts 230°
2026-05-04 18:36 53.63167 7.81904 38018 ft 420 kts 230°
2026-05-04 18:37 53.59313 7.74495 38025 ft 421 kts 230°
2026-05-04 18:37 53.55443 7.67079 37647 ft 427 kts 230°
2026-05-04 18:37 53.53483 7.63330 37161 ft 425 kts 230°
2026-05-04 18:38 53.51537 7.59618 36627 ft 422 kts 230°
2026-05-04 18:38 53.49601 7.55928 36023 ft 420 kts 230°
2026-05-04 18:38 53.47673 7.52258 35407 ft 418 kts 230°
2026-05-04 18:38 53.45750 7.48604 34771 ft 417 kts 230°
2026-05-04 18:39 53.43834 7.44969 34140 ft 415 kts 230°
2026-05-04 18:39 53.41935 7.41371 33627 ft 410 kts 230°
2026-05-04 18:39 53.40061 7.37826 33154 ft 403 kts 230°
2026-05-04 18:39 53.38215 7.34337 32712 ft 397 kts 230°
2026-05-04 18:40 53.36395 7.30903 32274 ft 391 kts 229°
2026-05-04 18:40 53.34600 7.27521 31840 ft 386 kts 229°
2026-05-04 18:40 53.32829 7.24186 31414 ft 381 kts 229°
2026-05-04 18:40 53.31077 7.20895 30986 ft 377 kts 229°
2026-05-04 18:41 53.29346 7.17643 30569 ft 372 kts 228°
2026-05-04 18:41 53.27630 7.14428 30163 ft 368 kts 227°
2026-05-04 18:41 53.25934 7.11252 29679 ft 365 kts 227°
2026-05-04 18:41 53.24256 7.08116 29261 ft 359 kts 227°
2026-05-04 18:42 53.22624 7.05071 28843 ft 354 kts 228°
2026-05-04 18:42 53.20991 7.02025 28424 ft 350 kts 228°
2026-05-04 18:42 53.19375 6.99017 28021 ft 346 kts 228°
2026-05-04 18:42 53.18295 6.97008 27725 ft 344 kts 228°
2026-05-04 18:43 53.16190 6.93096 27196 ft 341 kts 229°
2026-05-04 18:43 53.14605 6.90155 26780 ft 344 kts 229°
2026-05-04 18:43 53.13511 6.88127 26511 ft 353 kts 229°
2026-05-04 18:43 53.11843 6.85036 26082 ft 363 kts 229°
2026-05-04 18:44 53.10160 6.81924 25637 ft 360 kts 229°
2026-05-04 18:44 53.09052 6.79877 25353 ft 358 kts 230°
2026-05-04 18:44 53.06837 6.75791 24790 ft 354 kts 230°
2026-05-04 18:44 53.05196 6.72768 24364 ft 351 kts 230°
2026-05-04 18:45 53.03587 6.69806 23965 ft 349 kts 230°
2026-05-04 18:45 53.01964 6.66825 23560 ft 347 kts 230°
2026-05-04 18:45 53.00350 6.63859 23074 ft 345 kts 230°
2026-05-04 18:45 52.98748 6.60921 22653 ft 343 kts 230°
2026-05-04 18:46 52.97156 6.58004 22255 ft 340 kts 230°
2026-05-04 18:46 52.95576 6.55114 21856 ft 337 kts 230°
2026-05-04 18:46 52.94005 6.52241 21434 ft 334 kts 230°
2026-05-04 18:46 52.92448 6.49400 21043 ft 332 kts 230°
2026-05-04 18:47 52.90899 6.46573 20650 ft 330 kts 230°
2026-05-04 18:47 52.89354 6.43758 20264 ft 331 kts 230°
2026-05-04 18:47 52.87802 6.40932 19977 ft 334 kts 229°
2026-05-04 18:47 52.86213 6.38042 19746 ft 344 kts 229°
2026-05-04 18:48 52.84584 6.35084 19505 ft 350 kts 229°
2026-05-04 18:48 52.82978 6.32067 19249 ft 349 kts 233°
2026-05-04 18:48 52.81544 6.28842 19009 ft 347 kts 236°
2026-05-04 18:48 52.80186 6.25547 18762 ft 347 kts 237°
2026-05-04 18:49 52.78845 6.22243 18527 ft 346 kts 237°
2026-05-04 18:49 52.77501 6.18952 18297 ft 345 kts 237°
2026-05-04 18:49 52.76149 6.15677 18029 ft 345 kts 236°
2026-05-04 18:49 52.74793 6.12421 17758 ft 344 kts 236°
2026-05-04 18:50 52.73434 6.09181 17488 ft 343 kts 236°
2026-05-04 18:50 52.72074 6.05954 17225 ft 342 kts 236°
2026-05-04 18:50 52.70720 6.02752 16963 ft 340 kts 236°
2026-05-04 18:50 52.69368 5.99562 16702 ft 339 kts 236°
2026-05-04 18:51 52.68020 5.96387 16414 ft 338 kts 236°
2026-05-04 18:51 52.66672 5.93216 16074 ft 337 kts 236°
2026-05-04 18:51 52.65330 5.90063 15747 ft 334 kts 236°
2026-05-04 18:51 52.63998 5.86937 15422 ft 333 kts 236°
2026-05-04 18:52 52.62670 5.83825 15100 ft 332 kts 236°
2026-05-04 18:52 52.61344 5.80722 14779 ft 331 kts 236°
2026-05-04 18:52 52.60040 5.77672 14473 ft 330 kts 236°
2026-05-04 18:52 52.58703 5.74549 14150 ft 329 kts 236°
2026-05-04 18:53 52.57388 5.71482 13840 ft 329 kts 235°
2026-05-04 18:53 52.56072 5.68416 13501 ft 328 kts 236°
2026-05-04 18:53 52.54760 5.65360 13159 ft 327 kts 236°
2026-05-04 18:53 52.53452 5.62318 12828 ft 325 kts 235°
2026-05-04 18:54 52.52146 5.59289 12496 ft 324 kts 235°
2026-05-04 18:54 52.50853 5.56262 12160 ft 323 kts 237°
2026-05-04 18:54 52.49658 5.53150 11827 ft 321 kts 239°
2026-05-04 18:54 52.48516 5.50012 11508 ft 319 kts 239°
2026-05-04 18:55 52.47408 5.46940 11194 ft 315 kts 240°
2026-05-04 18:55 52.45192 5.40843 10551 ft 308 kts 239°
2026-05-04 18:55 52.44097 5.37857 10239 ft 304 kts 239°
2026-05-04 18:56 52.43010 5.34902 9925 ft 301 kts 239°
2026-05-04 18:56 52.41929 5.31975 9580 ft 299 kts 239°
2026-05-04 18:56 52.40849 5.29056 9237 ft 300 kts 239°
2026-05-04 18:56 52.39760 5.26116 8891 ft 303 kts 239°
2026-05-04 18:57 52.38662 5.23156 8558 ft 305 kts 239°
2026-05-04 18:57 52.37561 5.20192 8223 ft 305 kts 239°
2026-05-04 18:57 52.36460 5.17228 7894 ft 305 kts 239°
2026-05-04 18:57 52.35354 5.14258 7571 ft 305 kts 239°
2026-05-04 18:58 52.34248 5.11296 7246 ft 305 kts 239°
2026-05-04 18:58 52.33148 5.08350 6929 ft 302 kts 239°
2026-05-04 18:58 52.32006 5.05494 6596 ft 299 kts 230°
2026-05-04 18:58 52.30402 5.03461 6257 ft 288 kts 207°
2026-05-04 18:59 52.28610 5.02126 5927 ft 278 kts 203°
2026-05-04 18:59 52.26847 5.00924 5590 ft 273 kts 203°
2026-05-04 18:59 52.25087 4.99743 5271 ft 273 kts 203°
2026-05-04 18:59 52.23325 4.98573 4946 ft 273 kts 202°
2026-05-04 19:00 52.21576 4.97419 4636 ft 266 kts 202°
2026-05-04 19:00 52.19905 4.96320 4300 ft 253 kts 202°
2026-05-04 19:00 52.18306 4.95265 3960 ft 246 kts 202°
2026-05-04 19:00 52.16742 4.94226 3696 ft 238 kts 202°
2026-05-04 19:01 52.15214 4.93200 3445 ft 238 kts 202°
2026-05-04 19:01 52.13691 4.92173 3197 ft 237 kts 202°
2026-05-04 19:01 52.12273 4.90906 2904 ft 231 kts 224°
2026-05-04 19:01 52.11478 4.88754 2694 ft 218 kts 259°
2026-05-04 19:02 52.11365 4.86332 2584 ft 214 kts 271°
2026-05-04 19:02 52.11362 4.83979 2495 ft 202 kts 272°
2026-05-04 19:02 52.11355 4.81750 2512 ft 194 kts 272°
2026-05-04 19:02 52.11346 4.79561 2515 ft 192 kts 272°
2026-05-04 19:03 52.11347 4.77392 2515 ft 191 kts 272°
2026-05-04 19:03 52.11384 4.75240 2491 ft 189 kts 282°
2026-05-04 19:03 52.11982 4.73447 2497 ft 179 kts 323°
2026-05-04 19:03 52.13126 4.72780 2509 ft 175 kts
2026-05-04 19:04 52.14207 4.73408 2509 ft 159 kts 31°
2026-05-04 19:04 52.15128 4.74333 2502 ft 153 kts 32°
2026-05-04 19:04 52.16004 4.75232 2518 ft 145 kts 32°
2026-05-04 19:04 52.16858 4.76114 2489 ft 145 kts 32°
2026-05-04 19:05 52.17819 4.76609 2259 ft 144 kts
2026-05-04 19:05 52.18817 4.76737 2050 ft 142 kts
2026-05-04 19:05 52.19776 4.76856 1852 ft 135 kts
2026-05-04 19:05 52.20731 4.76954 1687 ft 139 kts
2026-05-04 19:06 52.21695 4.77046 1481 ft 138 kts
2026-05-04 19:06 52.22654 4.77135 1291 ft 140 kts
2026-05-04 19:06 52.23630 4.77226 1106 ft 140 kts
2026-05-04 19:06 52.24586 4.77314 917 ft 137 kts
2026-05-04 19:07 52.25533 4.77407 697 ft 136 kts
2026-05-04 19:07 52.26457 4.77499 535 ft 134 kts
2026-05-04 19:07 52.27385 4.77570 354 ft 133 kts
2026-05-04 19:07 52.28309 4.77667 199 ft 135 kts
2026-05-04 19:08 52.29273 4.77752 32 ft 139 kts
2026-05-04 19:08 52.30176 4.77832 -2 ft 112 kts
2026-05-04 19:08 52.30729 4.77886 -4 ft 49 kts
2026-05-04 19:08 52.30904 4.77844 -4 ft 18 kts 336°
2026-05-04 19:09 52.31021 4.77753 -2 ft 17 kts 334°
2026-05-04 19:09 52.31107 4.77682 -2 ft 9 kts 331°
2026-05-04 19:09 52.31146 4.77600 -2 ft 9 kts 294°
2026-05-04 19:09 52.31134 4.77509 -2 ft 9 kts 218°
2026-05-04 19:10 52.31075 4.77486 -2 ft 9 kts 183°
2026-05-04 19:10 52.31014 4.77484 -2 ft 9 kts 182°
2026-05-04 19:10 52.30933 4.77477 -2 ft 15 kts 182°
2026-05-04 19:10 52.30856 4.77465 -2 ft 11 kts 204°
2026-05-04 19:11 52.30839 4.77358 -2 ft 8 kts 271°
2026-05-04 19:11 52.30854 4.77302 -2 ft 5 kts 339°
2026-05-04 19:11 52.30881 4.77301 -2 ft 4 kts
2026-05-04 19:11 52.30895 4.77302 -2 ft 1 kts
2026-05-04 19:12 52.30897 4.77302 -2 ft 0 kts